Epoch = 1996 Oct. 4.0 TT T = 1996 Sept.16.29547 TT Peri. = 159.16042 e = 0.4968608 Node = 174.31326 2000.0 q = 2.7593400 AU Incl. = 14.45157 a = 5.4842471 AU n = 0.07674119 P = 12.84 years
m1 = 10.5 + 5 logΔ + 10.0 log r